Time,TemperatureF,DewpointF,PressureIn,WindDirection,WindDirectionDegrees,WindSpeedMPH,WindSpeedGustMPH,Humidity,HourlyPrecipIn,Conditions,Clouds,dailyrainin,SoftwareType,DateUTC
2013-09-20 00:00:00,56.4,54.1,30.00,SSE,152,0.0,0.0,92,0.00,,,0.00,Wunderground v.1.13,2013-09-20 04:00:00,
2013-09-20 00:30:00,55.9,53.9,30.00,SSE,152,0.0,0.0,93,0.00,,,0.00,Wunderground v.1.13,2013-09-20 04:30:00,
2013-09-20 01:00:00,55.8,54.1,30.00,SSE,151,0.0,0.0,94,0.00,,,0.00,Wunderground v.1.13,2013-09-20 05:00:00,
2013-09-20 01:30:00,56.2,54.2,30.00,SSE,152,0.0,0.0,93,0.00,,,0.00,Wunderground v.1.13,2013-09-20 05:30:00,
2013-09-20 02:00:00,55.5,53.2,30.00,SSE,151,0.0,0.0,92,0.00,,,0.00,Wunderground v.1.13,2013-09-20 06:00:00,
2013-09-20 02:30:00,53.2,51.2,30.00,SSE,151,0.0,0.0,93,0.00,,,0.00,Wunderground v.1.13,2013-09-20 06:30:00,
2013-09-20 03:00:00,51.2,49.8,30.00,SSE,152,0.0,0.0,95,0.00,,,0.00,Wunderground v.1.13,2013-09-20 07:00:00,
2013-09-20 03:30:00,49.9,48.8,30.01,SSE,152,0.0,0.0,96,0.00,,,0.00,Wunderground v.1.13,2013-09-20 07:30:00,
2013-09-20 04:00:00,49.5,48.7,30.01,SSE,152,0.0,0.0,97,0.00,,,0.00,Wunderground v.1.13,2013-09-20 08:00:00,
2013-09-20 04:30:00,49.0,48.5,30.02,SSE,152,0.0,0.0,98,0.00,,,0.00,Wunderground v.1.13,2013-09-20 08:30:00,
2013-09-20 05:00:00,50.3,50.0,30.02,SSE,151,0.0,0.0,99,0.00,,,0.00,Wunderground v.1.13,2013-09-20 09:00:00,
2013-09-20 05:30:00,50.8,50.5,30.02,SSE,152,0.0,0.0,99,0.00,,,0.00,Wunderground v.1.13,2013-09-20 09:30:00,
2013-09-20 06:00:00,50.0,49.5,30.03,SSE,152,0.0,0.0,98,0.00,,,0.00,Wunderground v.1.13,2013-09-20 10:00:00,
2013-09-20 06:30:00,50.1,49.8,30.05,SSE,152,0.0,0.0,99,0.00,,,0.00,Wunderground v.1.13,2013-09-20 10:30:00,
2013-09-20 07:00:00,50.4,50.1,30.05,SSE,152,0.0,0.0,99,0.00,,,0.00,Wunderground v.1.13,2013-09-20 11:00:00,
2013-09-20 07:30:00,51.8,51.8,30.05,SSE,152,0.0,0.0,100,0.00,,,0.00,Wunderground v.1.13,2013-09-20 11:30:00,
2013-09-20 08:00:00,52.8,52.8,30.05,SSE,152,0.0,0.0,100,0.00,,,0.00,Wunderground v.1.13,2013-09-20 12:00:00,
2013-09-20 08:30:00,54.4,53.8,30.06,SSE,151,0.0,0.0,98,0.00,,,0.00,Wunderground v.1.13,2013-09-20 12:30:00,
2013-09-20 09:00:00,54.8,53.7,30.07,SSE,157,0.0,0.0,96,0.00,,,0.00,Wunderground v.1.13,2013-09-20 13:00:00,
2013-09-20 09:30:00,56.8,55.1,30.07,SSE,157,0.0,0.0,94,0.00,,,0.00,Wunderground v.1.13,2013-09-20 13:30:00,
2013-09-20 10:00:00,59.3,55.7,30.08,SSE,157,0.0,0.0,88,0.00,,,0.00,Wunderground v.1.13,2013-09-20 14:00:00,
2013-09-20 10:30:00,61.3,56.8,30.08,SSE,155,0.0,0.0,85,0.00,,,0.00,Wunderground v.1.13,2013-09-20 14:30:00,
2013-09-20 11:00:00,62.6,57.0,30.07,South,173,0.0,0.0,82,0.00,,,0.00,Wunderground v.1.13,2013-09-20 15:00:00,
2013-09-20 11:30:00,63.8,57.5,30.06,WNW,294,0.0,0.0,80,0.00,,,0.00,Wunderground v.1.13,2013-09-20 15:30:00,
2013-09-20 12:00:00,64.4,57.7,30.06,WNW,297,1.0,1.0,79,0.00,,,0.00,Wunderground v.1.13,2013-09-20 16:00:00,
2013-09-20 12:30:00,65.8,58.4,30.06,WNW,298,0.0,0.0,77,0.00,,,0.00,Wunderground v.1.13,2013-09-20 16:30:00,
2013-09-20 13:00:00,65.8,58.7,30.05,NNW,344,1.0,2.0,78,0.00,,,0.00,Wunderground v.1.13,2013-09-20 17:00:00,
2013-09-20 13:30:00,65.2,59.2,30.05,NNW,343,0.0,0.0,81,0.00,,,0.00,Wunderground v.1.13,2013-09-20 17:30:00,
2013-09-20 14:00:00,64.0,60.1,30.05,NNW,343,0.0,0.0,87,0.00,,,0.00,Wunderground v.1.13,2013-09-20 18:00:00,
2013-09-20 14:30:00,63.0,58.7,30.05,NNW,343,0.0,0.0,86,0.00,,,0.00,Wunderground v.1.13,2013-09-20 18:30:00,
2013-09-20 15:00:00,62.5,59.5,30.05,NNW,343,0.0,0.0,90,0.00,,,0.00,Wunderground v.1.13,2013-09-20 19:00:00,
2013-09-20 15:30:00,61.6,59.3,30.05,NNW,342,0.0,0.0,92,0.00,,,0.00,Wunderground v.1.13,2013-09-20 19:30:00,
2013-09-20 16:00:00,60.4,58.4,30.05,NNW,333,1.0,1.0,93,0.00,,,0.00,Wunderground v.1.13,2013-09-20 20:00:00,
2013-09-20 16:30:00,59.0,57.6,30.03,WNW,285,2.0,3.0,95,0.00,,,0.00,Wunderground v.1.13,2013-09-20 20:30:00,
2013-09-20 17:00:00,59.0,57.0,30.04,NNW,346,1.0,2.0,93,0.00,,,0.00,Wunderground v.1.13,2013-09-20 21:00:00,
2013-09-20 17:30:00,58.8,56.2,30.04,NW,312,1.0,4.0,91,0.00,,,0.00,Wunderground v.1.13,2013-09-20 21:30:00,
2013-09-20 18:00:00,57.9,55.0,30.04,WNW,290,1.0,1.0,90,0.00,,,0.00,Wunderground v.1.13,2013-09-20 22:00:00,
2013-09-20 18:30:00,57.1,54.2,30.03,NW,317,1.0,2.0,90,0.00,,,0.00,Wunderground v.1.13,2013-09-20 22:30:00,
2013-09-20 19:00:00,56.2,53.6,30.04,WNW,286,0.0,0.0,91,0.00,,,0.00,Wunderground v.1.13,2013-09-20 23:00:00,
2013-09-20 19:30:00,55.3,53.0,30.04,WNW,296,0.0,0.0,92,0.00,,,0.00,Wunderground v.1.13,2013-09-20 23:30:00,
2013-09-20 20:00:00,54.6,52.3,30.04,WNW,286,1.0,1.0,92,0.00,,,0.00,Wunderground v.1.13,2013-09-21 00:00:00,
2013-09-20 20:30:00,53.9,51.9,30.04,West,279,0.0,0.0,93,0.00,,,0.00,Wunderground v.1.13,2013-09-21 00:30:00,
2013-09-20 21:00:00,53.3,51.6,30.03,West,269,1.0,1.0,94,0.00,,,0.00,Wunderground v.1.13,2013-09-21 01:00:00,
2013-09-20 21:30:00,53.2,51.5,30.04,WNW,284,1.0,1.0,94,0.00,,,0.00,Wunderground v.1.13,2013-09-21 01:30:00,
2013-09-20 22:00:00,53.2,51.5,30.03,NW,311,0.0,0.0,94,0.00,,,0.00,Wunderground v.1.13,2013-09-21 02:00:00,
2013-09-20 22:30:00,53.2,51.5,30.02,NNW,331,1.0,2.0,94,0.00,,,0.00,Wunderground v.1.13,2013-09-21 02:30:00,
2013-09-20 23:00:00,53.2,51.5,30.02,South,177,1.0,1.0,94,0.00,,,0.00,Wunderground v.1.13,2013-09-21 03:00:00,
2013-09-20 23:30:00,53.3,51.6,30.01,West,273,1.0,1.0,94,0.00,,,0.00,Wunderground v.1.13,2013-09-21 03:30:00,